sat.trackr.live / text

‹ back to catalog

STARLINK-36415

NORAD 67519 · 2026-012AC

PAYLOAD ACTIVE UNKNOWN

§ Identity

Operator
Country
US
Launch date
2026-01-18
Launch site
AFETR
Launch vehicle
Mass (kg)
RCS (m²)

Purposes: comms

External: N2YO · Heavens-Above · Gunter

§ Orbital elements

Epoch: 2026-05-24T23:33:18.593280Z

Period
94.27 min
Inclination
42.9994°
Eccentricity
0.0001463
Mean motion
15.27594228 rev/d
Perigee alt
482.0 km
Apogee alt
484.0 km
Semi-major
6,861.1 km
B*
8.6771e-4
RAAN
243.1870°
Arg perigee
253.6911°
Mean anomaly
106.3779°
Rev number
1,943

§ Raw data

STARLINK-364151 67519U 26012AC  26144.98146520  .00023703  00000+0  86771-3 0  99972 67519  42.9994 243.1870 0001463 253.6911 106.3779 15.27594228 19438

JSON: /api/v1/satellites/67519 · /tle

For live sub-satellite position, see the globe view (requires WebGL).

§ Visibility from observer

Set your observer location to see the next 7 days of passes ≥ 10°. The values pass through the URL so the page stays shareable.

No JS? Fill the form by hand. The geolocation button needs JavaScript.